TimeEST,TemperatureF,Dew PointF,Humidity,Sea Level PressureIn,VisibilityMPH,Wind Direction,Wind SpeedMPH,Gust SpeedMPH,PrecipitationIn,Events,Conditions,WindDirDegrees,DateUTC
12:53 AM,24.1,19.9,84,29.76,10.0,Calm,Calm,-,N/A,,Overcast,0,2013-02-14 05:53:00
1:53 AM,25.0,19.0,78,29.79,10.0,NW,4.6,-,N/A,,Clear,320,2013-02-14 06:53:00
2:53 AM,19.9,16.0,85,29.81,10.0,Calm,Calm,-,N/A,,Partly Cloudy,0,2013-02-14 07:53:00
3:53 AM,18.0,15.1,88,29.83,10.0,Calm,Calm,-,N/A,,Scattered Clouds,0,2013-02-14 08:53:00
4:53 AM,18.0,16.0,92,29.85,10.0,Calm,Calm,-,N/A,,Mostly Cloudy,0,2013-02-14 09:53:00
5:53 AM,21.9,17.1,82,29.86,10.0,North,3.5,-,N/A,,Mostly Cloudy,360,2013-02-14 10:53:00
6:53 AM,18.0,16.0,92,29.88,10.0,Calm,Calm,-,N/A,,Overcast,0,2013-02-14 11:53:00
7:53 AM,17.1,14.0,88,29.91,9.0,Calm,Calm,-,N/A,,Clear,0,2013-02-14 12:53:00
8:53 AM,27.0,19.9,75,29.93,10.0,Calm,Calm,-,N/A,,Clear,0,2013-02-14 13:53:00
9:53 AM,32.0,19.9,61,29.94,10.0,Calm,Calm,-,N/A,,Clear,0,2013-02-14 14:53:00
10:53 AM,34.0,19.9,56,29.96,10.0,SSE,4.6,-,N/A,,Mostly Cloudy,160,2013-02-14 15:53:00
11:53 AM,35.1,19.0,52,29.94,10.0,Calm,Calm,-,N/A,,Overcast,0,2013-02-14 16:53:00
12:53 PM,36.0,18.0,48,29.92,10.0,Calm,Calm,-,N/A,,Clear,0,2013-02-14 17:53:00
1:53 PM,36.0,18.0,48,29.91,10.0,Variable,3.5,-,N/A,,Clear,0,2013-02-14 18:53:00
2:53 PM,37.0,19.9,50,29.91,10.0,ESE,9.2,-,N/A,,Clear,110,2013-02-14 19:53:00
3:53 PM,37.0,21.0,52,29.92,10.0,South,9.2,-,N/A,,Clear,170,2013-02-14 20:53:00
4:53 PM,36.0,21.0,55,29.94,10.0,South,9.2,-,N/A,,Clear,190,2013-02-14 21:53:00
5:53 PM,32.0,21.9,66,29.97,10.0,SSE,4.6,-,N/A,,Clear,160,2013-02-14 22:53:00
6:53 PM,32.0,21.9,66,29.97,9.0,Calm,Calm,-,N/A,,Overcast,0,2013-02-14 23:53:00
7:53 PM,30.9,21.9,69,29.96,10.0,Calm,Calm,-,N/A,,Overcast,0,2013-02-15 00:53:00
8:53 PM,30.0,23.0,75,29.96,10.0,NW,3.5,-,N/A,,Overcast,310,2013-02-15 01:53:00
9:53 PM,28.9,23.0,78,29.95,9.0,Calm,Calm,-,N/A,,Mostly Cloudy,0,2013-02-15 02:53:00
10:53 PM,28.0,23.0,81,29.94,10.0,Calm,Calm,-,N/A,,Overcast,0,2013-02-15 03:53:00
11:53 PM,28.0,23.0,81,29.95,9.0,Calm,Calm,-,N/A,,Overcast,0,2013-02-15 04:53:00